COSMOS 2460 (732)

Last updated on Tue Sep 16 2025 00:03:19 GMT+0000 (Coordinated Universal Time)

1 36402U 10007C 25258.20644745 -.00000058 00000+0 00000+0 0 9999 2 36402 65.5757 323.7642 0002361 219.6832 167.7049 2.13106135120876
UTC large
Height (km)
Speed (km/s)
/
Latitude / Longitude
Inclination (degrees)
Orbital Period (minutes)
Azimuth
Elevation
Range (km)
Doppler Factor

Next 0 passes for location: London (51.5072 / 0.1276)

Sorry there are no passes over London.